Regional Weather Roundup
Issued by NWS

Home | Current Version | Previous Version | Graphics & Text | Print | Product List | Glossary On
Versions: 1 2 3 4 5 6 7 8 9 10 11 12 13 14 15 16 17 18 19 20 21 22 23 24 25 26 27
000
ASUS45 KTFX 270210
RWRMT
MONTANA REGIONAL WEATHER ROUNDUP
NATIONAL WEATHER SERVICE GREAT FALLS MT
800 PM MDT WED JUL 26 2017

NOTE: "FAIR" INDICATES FEW OR NO CLOUDS BELOW 12000 FEET WITH NO
SIGNIFICANT WEATHER AND/OR OBSTRUCTIONS TO VISIBILITY.

MTZ001>007-043-270300-
WEST OF THE DIVIDE

CITY           SKY/WX    TMP DP  RH WIND       PRES   REMARKS
KALISPELL      PTSUNNY   88  43  20 S6        29.97S
MISSOULA       PTSUNNY   81  46  29 S18       30.01R
BUTTE          MOCLDY    72  45  37 N16G24    30.23S
MULLAN PASS    PTSUNNY   71  37  28 VRB6      30.23S
ANACONDA         N/A     72  45  37 S13       30.16F
DEER LODGE       N/A     70  50  49 S8        30.16S
EUREKA           N/A     91  28  10 MISG      29.94S
HAMILTON         N/A     73  48  40 SE12      30.08F
LIBBY            N/A     88  37  16 CALM      29.95S
PLAINS           N/A     88  43  20 W8        29.98
$$

MTZ008-052>055-270300-
SOUTHWEST MONTANA

CITY           SKY/WX    TMP DP  RH WIND       PRES   REMARKS
BOZEMAN        MOCLDY    76  50  40 S9        30.13S
DILLON         CLOUDY    73  45  36 S8        30.18R
W YELLOWSTONE  CLOUDY    64  52  63 CALM      30.29F
ENNIS          CLOUDY    72  50  46 S8        30.25R
THREE FORKS      N/A     77  48  35 NW8       30.11R
TWIN BRIDGES     N/A     77  43  29 CALM      30.14R
$$

MTZ009-010-012-014-046-048-049-054-270300-
EAST SLOPES AND CENTRAL MONTANA

CITY           SKY/WX    TMP DP  RH WIND       PRES   REMARKS
CUT BANK       MOSUNNY   85  35  16 SE8       30.02S
GREAT FALLS    CLOUDY    87  36  16 E8        30.00S
HELENA         PTCLDY    81  44  27 S15G24    30.06R
CHOTEAU          N/A     82  37  20 NE6       30.04R
CONRAD           N/A     83  46  27 NE2       30.04F
$$

MTZ011-013-016-021-045-047-050-051-270300-
NORTH CENTRAL MONTANA

CITY           SKY/WX    TMP DP  RH WIND       PRES   REMARKS
HAVRE          PTCLDY    88  42  20 E16       29.96F
LEWISTOWN      PTCLDY    83  45  26 N3        30.05S
N BAR RANCH    MOCLDY    82  41  23 S12G18    30.11S
CHINOOK          N/A     88  46  23 E5        29.97S
$$

MTZ017>020-022>027-061-062-270300-
NORTHEAST MONTANA

CITY           SKY/WX    TMP DP  RH WIND       PRES   REMARKS
GLASGOW        MOCLDY    88  43  20 E13       29.99S
JORDAN           N/A     90  40  17 SE5       29.98F
SIDNEY         CLEAR     85  52  32 E8        30.03S
WOLF POINT     PTCLDY    88  47  24 E12       30.00S
MALTA          CLEAR     86  50  28 E8        29.97F
PLENTYWOOD       N/A     82  45  26 CALM      30.06S
POPLAR           N/A     86  48  26 E9        30.02S
SCOBEY           N/A     86  43  22 SE3       30.04
$$

MTZ028>42-056>058-270300-
SOUTHCENTRAL AND SOUTHEAST MONTANA

CITY           SKY/WX    TMP DP  RH WIND       PRES   REMARKS
BAKER          CLEAR     85  46  25 S14       30.07S
BILLINGS       CLOUDY    82  47  29 W10G21    30.06R
LIVINGSTON     CLOUDY    73  52  47 W8        30.14S
MILES CITY     CLEAR     90  43  19 SE6       29.99F
BIG TIMBER     CLOUDY    70  52  52 W7        30.15F
EKALAKA          N/A     81  44  26 SE8       30.07F
FORSYTH          N/A     90  46  22 E5        29.98F
LAUREL           N/A     80  46  30 CALM      30.06R
$$

REGIONAL REPORTS...DAKOTAS

CITY           SKY/WX    TMP DP  RH WIND       PRES   REMARKS
WILLISTON      CLEAR     86  48  26 E9        30.05S
MINOT          CLEAR     76  55  48 NE6       30.10S
DICKINSON      PTCLDY    77  55  46 E9        30.08R
BEACH          DRIZZLE   82  50  32 SE8       30.09R
CROSBY           N/A     77  50  38 E9        30.09S
TIOGA            N/A     77  48  36 E10       30.11S
WATFORD CITY     N/A     81  52  36 E9        30.06S
BISMARCK       CLEAR     79  52  38 E8        30.09S
GRAND FORKS    PTCLDY    73  63  70 NW3       30.06R
FARGO          CLEAR     73  61  65 N6        30.05S
BUFFALO SD       N/A     83  51  33 S12       30.04S
RAPID CITY     MOCLDY    80  50  34 E9        30.13R
$$

REGIONAL REPORTS...WYOMING/IDAHO/WASHINGTON

CITY           SKY/WX    TMP DP  RH WIND       PRES   REMARKS
GILLETTE       CLEAR     77  51  40 S16       30.16R
SHERIDAN       CLEAR     79  54  41 SE6       30.07F
BUFFALO WY     LGT RAIN  67  58  72 SW18      30.19R
CODY           CLOUDY    76  50  40 SW6       30.15S
YELLOWSTONE LA   N/A     62  50  64 VRB3      30.39R
IDAHO FALLS    CLOUDY    69  54  58 N22G36    30.19R
BOISE          PTSUNNY   84  53  34 W6        30.00F
SPOKANE        PTSUNNY   89  38  16 W9        29.96F
$$

REGIONAL REPORTS...ALBERTA

CITY           SKY/WX    TMP DP  RH WIND       PRES   REMARKS
EDMONTON       SUNNY     75  55  50 S6        29.95S
CALGARY        PTSUNNY   81  41  24 E9        29.99S
LETHBRIDGE     MOSUNNY   86  46  25 E6        29.95S
MEDICINE HAT   PTCLDY    90  39  17 E5        29.94F
CARDSTON         N/A     86  37  17 SW3         N/A
MILK RIVER       N/A     82  41  23 SE9         N/A
$$

REGIONAL REPORTS...SASKATCHEWAN

CITY           SKY/WX    TMP DP  RH WIND       PRES   REMARKS
SWIFT CURRENT  CLEAR     81  48  32 E9        30.05S
REGINA         CLEAR     79  48  34 SE8       30.06F
SASKATOON      PTCLDY    77  57  50 NW2       30.05S
CYPRESS HILLS    N/A     77  34  20 SE3         N/A
VAL MARIE        N/A     82  39  21 SE3         N/A
ROCKGLEN         N/A     81  41  24 E2          N/A
ASSINIBOIA       N/A     77  55  47 SE7         N/A
$$




USA.gov is the U.S. government's official web portal to all federal, state and local government web resources and services.